Regional Weather Roundup
Issued by NWS Boston, MA

Current Version | Previous Version | Text Only | Print | Product List | Glossary Off
Versions: 1 2 3 4 5 6 7 8 9 10 11 12 13 14 15 16 17 18 19 20 21 22 23 24 25 26 27 28 29 30 31 32 33 34 35 36 37 38 39 40 41 42 43 44 45 46 47 48 49 50
004 ASUS41 KBOX 241310 RWRBOX REGIONAL WEATHER ROUNDUP NATIONAL WEATHER SERVICE TAUNTON MA 900 AM EDT FRI MAR 24 2017 NOTE: "FAIR" INDICATES FEW OR NO CLOUDS BELOW 12,000 FEET WITH NO SIGNIFICANT WEATHER AND/OR OBSTRUCTIONS TO VISIBILITY. MAZALL-241400- EASTERN MASSACHUSETTS CITY SKY/WX TMP DP RH WIND PRES REMARKS BOSTON CLOUDY 34 14 43 S9 30.47F WCI 27 BEVERLY PTSUNNY 35 12 38 S7 30.45F WCI 29 LAWRENCE CLOUDY 32 8 36 VRB6 30.45F WCI 26 BEDFORD CLOUDY 34 10 37 S8 30.44F WCI 27 BLUE HILL N/A 31 14 49 S16G23 30.41F WCI 20 NORWOOD CLOUDY 35 17 47 S7 30.46F WCI 29 MARSHFIELD CLOUDY 34 12 40 S8 30.47F WCI 27 PLYMOUTH CLOUDY 32 18 56 S6 30.48F WCI 26 TAUNTON CLOUDY 34 17 50 SE5 30.47F WCI 30 NEW BEDFORD CLOUDY 38 24 57 S8 30.48F $$ MAZALL-241400- CAPE COD AND THE ISLANDS CITY SKY/WX TMP DP RH WIND PRES REMARKS FALMOUTH CLOUDY 34 21 60 MISG 30.50F HYANNIS CLOUDY 36 18 48 S6 30.49F WCI 31 CHATHAM CLOUDY 36 23 59 SW8 30.52F WCI 30 PROVINCETOWN CLOUDY 35 18 49 S14 30.50F WCI 26 NANTUCKET CLOUDY 37 21 52 S12 30.53F WCI 29 MARTHAS VNYRD CLOUDY 38 24 57 S13 30.50F WCI 30 $$ MAZALL-241400- CENTRAL AND WESTERN MASSACHUSETTS CITY SKY/WX TMP DP RH WIND PRES REMARKS WORCESTER CLOUDY 29 14 53 S12 30.37F WCI 19 FITCHBURG CLOUDY 33 13 43 SE8 30.41F WCI 26 ORANGE CLOUDY 32 19 58 S7 30.38F WCI 26 SPRINGFIELD CLOUDY 35 22 60 S9 30.39F WCI 27 WESTFIELD PTSUNNY 31 20 63 S6 30.40F WCI 25 NORTH ADAMS CLOUDY 33 8 35 VRB6 30.32F WCI 28 PITTSFIELD CLOUDY 28 14 55 MISG 30.30F $$ RIZALL-241400- RHODE ISLAND CITY SKY/WX TMP DP RH WIND PRES REMARKS PROVIDENCE CLOUDY 35 23 61 S8 30.47F WCI 29 NEWPORT CLOUDY 39 27 62 S8G21 30.48F BLOCK ISLAND CLOUDY 40 29 64 S16 30.48F WCI 31 SMITHFIELD CLOUDY 34 21 59 VRB3 30.44F WESTERLY CLOUDY 41 29 62 S10 30.48F $$ CTZALL-241400- CONNECTICUT CITY SKY/WX TMP DP RH WIND PRES REMARKS BRADLEY INTL CLOUDY 35 27 72 S8 30.42F WCI 29 HARTFORD CLOUDY 36 26 67 S8 30.44F WCI 30 BRIDGEPORT CLOUDY 39 29 67 S10 30.46F DANBURY PTSUNNY 35 22 58 SW6 30.44S WCI 30 GROTON CLOUDY 40 29 64 S13 30.47F NEW HAVEN PTSUNNY 38 30 73 SW10 30.47F WCI 31 CHESTER NOT AVBL MERIDEN CLOUDY 37 25 61 S5 30.45F WILLIMANTIC CLOUDY 34 24 67 S7 30.45F WCI 28 OXFORD PTSUNNY 34 18 51 SW6 30.43F WCI 29 $$ MEZ002-015-021-024-NHZ003-005-008-011-012-014-VTZ005-008-241400- NORTHERN NEW ENGLAND CITY SKY/WX TMP DP RH WIND PRES REMARKS PORTLAND ME CLOUDY 34 14 43 S9 30.45S WCI 27 BANGOR ME CLOUDY 23 7 50 S8 30.44S WCI 14 CONCORD NH CLOUDY 29 11 47 S5 30.40F WCI 24 MANCHESTER NH NOT AVBL NASHUA NH NOT AVBL PORTSMOUTH NH CLOUDY 31 13 47 S7 30.43F WCI 25 JAFFREY NH CLOUDY 31 13 47 S5 30.35F WCI 26 KEENE NH CLOUDY 30 13 49 CALM 30.39F BURLINGTON VT SNOW 28 25 88 S14 30.28F VSB 1/2 WCI 17 MT. WASHINGTON FLURRIES 9 1 72 SW49G55 N/A WCI -19 $$ NYZ052-076-241400- EASTERN NEW YORK CITY SKY/WX TMP DP RH WIND PRES REMARKS ALBANY CLOUDY 36 11 35 S14G21 30.32F WCI 27 NEW YORK CITY CLOUDY 40 27 59 S14G23 30.45F $$ ANZALL-241400- MARINE OBSERVATIONS STATION/POSITION TIME TEMP WIND PRES VSBY WAVE AIR SEA DIR/SP/G HT/PER (UTC) (F) (DEG/KT/KT) (MB) (MI) (FT/S) BOSTON BUOY 1150 34 40 190/ 14/ 16 1032.1 1/ 5 BUZZARDS BAY 1200 38 200/ 13/ 14 1033.9F NANTUCKET SOUND 1150 38 1033.9 1 MASS BAY-STELLWA 1204 35 38 200/ 14/ 16 1030.9F ISLE OF SHOALS 1200 35 170/ 16/ 18 1031.3F S OF BLOCK IS 1255 40 N/A 2/ 3 $$ ......................KEY......................... SKY/WX - SKY CONDITION/PRESENT WEATHER TMP - TEMPERATURE IN FAHRENHEIT DWPT - DEWPOINT IN FAHRENHEIT RH - RELATIVE HUMIDITY IN PERCENT WIND - DIRECTION AND SPEED IN MPH PRES - MEAN SEA LEVEL PRESSURE IN INCHES OF HG WCI - WIND CHILL INDEX VSB - VISIBILITY IN MILES HX - HEAT INDEX TC - TEMPERATURE IN CELSIUS VRB - VARIABLE WIND DIRECTION N/A - NOT AVAILABLE

USA.gov is the U.S. government's official web portal to all federal, state and local government web resources and services.